This demonstration page uses our WeatherBlox Daily Observations layout. Learn more.

39.92423, -83.80882

Hourly Observations for July 22, 2016

Temp ( °F °C ) Dew Point ( °F °C ) Humidity (%) Winds ( mph kmh ) Pressure ( in mb ) Visibility ( mi km ) Precip ( " mm )
12:56 am 00:56 Clear 69 20.6 67 19.4 93 93 undefined N/A N/A 10 16.0934 0 0
1:56 am 01:56 Clear 70 21.1 67 19.4 90 90 SSE 6 9 30.06 1018 10 16.0934 0 0
2:56 am 02:56 Clear 69 20.6 67 19.4 93 93 Calm 30.06 1018 10 16.0934 0 0
3:56 am 03:56 Clear 70 21.1 66 18.9 87 87 S 3 6 30.04 1017 10 16.0934 0 0
4:56 am 04:56 Clear 70 21.1 66 18.9 87 87 undefined N/A 30.03 1017 10 16.0934 0 0
5:56 am 05:56 Clear 71 21.7 67 19.4 87 87 S 5 7 30.01 1016 10 16.0934 0 0
6:56 am 06:56 Sunny 72 22.2 69 20.6 91 91 SW 6 9 30.02 1017 10 16.0934 0 0
7:56 am 07:56 Sunny 75 23.9 71 21.7 88 88 SW 7 11 30.03 1017 10 16.0934 0 0
8:56 am 08:56 Sunny 79 26.1 74 23.3 85 85 SW 7 11 30.03 1017 10 16.0934 0 0
9:41 am 09:41 Mostly Cloudy 79 26 73 23 84 84 W 7 11 30 1016 10 16.0934 0 0
9:56 am 09:56 Cloudy 80 26.7 74 23.3 82 82 WSW 8 13 30.03 1017 10 16.0934 0 0
10:07 am 10:07 Cloudy with Nearby Thunderstorms 79 26 73 23 84 84 W 8 13 N/A 10 16.0934 0 0
10:56 am 10:56 Cloudy with Thunderstorms 77 25 72 22.2 85 85 NE 5 7 30.05 1018 7 11.26538 0 0.0254
11:09 am 11:09 Cloudy with Light Thunderstorms 75 24 73 23 94 94 Calm 30.06 1018 8 12.87472 0 0.0254
11:19 am 11:19 Cloudy with Heavy Rain 73 23 70 21 89 89 undefined N/A 30.06 1018 2.5 4.02335 0.27 6.858
11:26 am 11:26 Cloudy with Thunderstorms 72 22 68 20 88 88 Calm N/A 3 4.82802 0.35 8.89
11:52 am 11:52 Cloudy with Light Thunderstorms 73 23 70 21 89 89 SSE 8 13 30.09 1019 10 16.0934 0.39 9.906
11:56 am 11:56 Cloudy with Light Thunderstorms 73 22.8 70 21.1 90 90 SSE 7 11 30.09 1019 10 16.0934 0.39 9.906
12:28 pm 12:28 Cloudy with Nearby Thunderstorms 72 22 72 22 100 100 SE 6 9 30.06 1018 10 16.0934 0.04 1.016
12:49 pm 12:49 Cloudy with Light Rain 73 23 72 22 94 94 S 7 11 30.06 1018 10 16.0934 0.05 1.27
12:56 pm 12:56 Mostly Cloudy with Light Rain 74 23.3 71 21.7 91 91 S 8 13 30.07 1018 10 16.0934 0.05 1.27
1:56 pm 13:56 Mostly Cloudy 74 23.3 71 21.7 91 91 S 10 17 30.07 1018 10 16.0934 0 0.0254
2:56 pm 14:56 Sunny 76 24.4 72 22.2 88 88 S 7 11 30.05 1018 10 16.0934 0 0
3:56 pm 15:56 Sunny 77 25 72 22.2 85 85 SW 9 15 30.01 1016 10 16.0934 0 0
4:56 pm 16:56 Sunny 79 26.1 72 22.2 79 79 SSW 6 9 30.02 1017 10 16.0934 0 0
5:56 pm 17:56 Sunny 80 26.7 73 22.8 79 79 S 5 7 30.01 1016 10 16.0934 0 0
6:56 pm 18:56 Mostly Cloudy 81 27.2 75 23.9 82 82 SSW 3 6 29.99 1016 10 16.0934 0 0
7:21 pm 19:21 Partly Cloudy 81 27 73 23 79 79 VRB 3 6 N/A 10 16.0934 0 0
7:56 pm 19:56 Sunny 80 26.7 74 23.3 82 82 SSE 3 6 29.99 1016 10 16.0934 0 0
8:56 pm 20:56 Sunny 76 24.4 74 23.3 94 94 SSW 3 6 30 1016 10 16.0934 0 0
9:56 pm 21:56 Clear 75 23.9 72 22.2 90 90 SSW 5 7 N/A 10 16.0934 0 0
10:56 pm 22:56 Clear 75 23.9 72 22.2 90 90 SSW 7 11 30.02 1017 10 16.0934 0 0
11:56 pm 23:56 Clear 73 22.8 71 21.7 94 94 SSW 6 9 30.03 1017 10 16.0934 0 0

Powered by AerisWeather